Flag for Germany Weather past 2 weeks in Ludwigsburg, Baden-Württemberg, Germany

Now
57 °F

Passing clouds.


Feels Like: 57 °F
Forecast: 51 / 68 °F
Wind: 1 mph from Southwest

Location: Stuttgart-Echterdingen

Current Time: Sep 2, 2014 at 10:56:53 PM

Latest Report: Sep 2, 2014 at 10:20 PM


Visibility: N/A

Pressure: 30.18 "Hg

Humidity: 94%

Dew point: 55 °F

Location of LudwigsburgLocation

Historic Weather in Ludwigsburg — Graph

°F

Ludwigsburg temperature yesterday

Maximum temperature yesterday: 61 °F (at 2:20 PM)
Minimum temperature yesterday: 52 °F (at 4:20 AM)
Average temperature yesterday: 56 °F

Past Weeks' High & Low Weather Summary

 TemperatureHumidityPressure
High73 °F (Aug 28, 3:20 PM)100% (Aug 25, 6:20 AM)30.18 "Hg (Aug 25, 6:20 AM)
Low45 °F (Aug 25, 5:20 AM)38% (Aug 22, 4:20 PM)29.68 "Hg (Aug 26, 5:50 AM)
Average59 °F78%30.02 "Hg
* Reported Aug 18 9:20 PM — Sep 2 9:20 PM, Ludwigsburg, Weather by CustomWeather, © 2014

Note: Actual official high and low records may vary slightly from our data, if they occured in-between our weather recording intervals... More about our weather records

Advertising

Ludwigsburg weather history for previous 24 hours

 ConditionsComfort  
Time TempWeatherWind HumidityBarometerVisibility
9:20 PM
Sep 2
57 °FClear.2 mph94%30.18 "Hg10 mi
8:50 PM57 °FPartly sunny.2 mph94%30.18 "HgN/A
8:20 PM57 °FPartly sunny.2 mph94%30.15 "HgN/A
7:50 PM59 °FPartly sunny.2 mph88%30.15 "HgN/A
7:20 PM59 °FPartly sunny.1 mph82%30.15 "HgN/A
6:50 PM59 °FSprinkles. Broken clouds.5 mph88%30.15 "HgN/A
6:20 PM61 °FScattered showers. Partly sunny.8 mph77%30.15 "HgN/A
5:50 PM61 °FScattered showers. Partly sunny.7 mph77%30.15 "HgN/A
5:20 PM61 °FScattered showers. Broken clouds.3 mph77%30.15 "HgN/A
4:50 PM61 °FScattered showers. Broken clouds.8 mph83%30.15 "HgN/A
4:20 PM61 °FScattered showers. Broken clouds.12 mph77%30.15 "HgN/A
3:50 PM63 °FSprinkles. Broken clouds.7 mph68%30.15 "HgN/A
3:20 PM63 °FScattered showers. Broken clouds.5 mph73%30.15 "HgN/A
2:50 PM61 °FSprinkles. Broken clouds.8 mph77%30.15 "HgN/A
2:20 PM63 °FBroken clouds.5 mph68%30.15 "HgN/A
1:50 PM63 °FBroken clouds.7 mph68%30.15 "HgN/A
1:20 PM63 °FPartly sunny.8 mph68%30.15 "HgN/A
12:50 PM64 °FBroken clouds.5 mph64%30.15 "HgN/A
12:20 PM63 °FBroken clouds.6 mph64%30.15 "HgN/A
11:50 AM63 °FBroken clouds.6 mph73%30.15 "HgN/A
11:20 AM61 °FBroken clouds.5 mph72%30.15 "HgN/A
10:50 AM61 °FBroken clouds.3 mph72%30.15 "HgN/A
10:20 AM61 °FPartly sunny.2 mph72%30.15 "HgN/A
9:50 AM61 °FScattered clouds.5 mph77%30.15 "HgN/A
9:20 AM59 °FPassing clouds.1 mph88%30.15 "HgN/A
8:50 AM59 °FSunny.1 mph82%30.15 "Hg10 mi
8:20 AM55 °FPartly sunny.2 mph94%30.15 "HgN/A
7:50 AM54 °FSprinkles. Broken clouds.3 mph100%30.15 "HgN/A
7:20 AM54 °FPassing clouds.1 mph94%30.15 "HgN/A
6:50 AM54 °FPartly cloudy.2 mph94%30.15 "HgN/A
6:20 AM54 °FPartly cloudy.1 mph94%30.15 "HgN/A
5:50 AM54 °FPartly cloudy.1 mph94%30.15 "HgN/A
5:20 AM54 °FPartly cloudy.2 mph94%30.15 "HgN/A
4:50 AM54 °FPartly cloudy.3 mph94%30.15 "HgN/A
4:20 AM54 °FPassing clouds.2 mph94%30.15 "HgN/A
3:50 AM54 °FPassing clouds.No wind94%30.15 "HgN/A
3:20 AM54 °FClear.1 mph94%30.15 "Hg10 mi
2:50 AM55 °FClear.2 mph88%30.15 "Hg10 mi
2:20 AM55 °FClear.2 mph88%30.15 "Hg10 mi
1:50 AM55 °FClear.2 mph94%30.15 "Hg10 mi
1:20 AM55 °FClear.1 mph94%30.15 "Hg10 mi
12:50 AM55 °FClear.2 mph88%30.15 "Hg10 mi
12:20 AM55 °FClear.2 mph88%30.15 "Hg10 mi
11:50 PM
Sep 1
57 °FClear.3 mph82%30.15 "Hg10 mi
11:20 PM57 °FClear.3 mph82%30.18 "Hg10 mi
10:20 PM57 °FClear.2 mph82%30.18 "Hg10 mi
Weather by CustomWeather, © 2014

See weather overviewHow to use our weather pages